Regional Weather Roundup
Issued by NWS

Home | Current Version | Previous Version | Text Only | Print | Product List | Glossary Off
Versions: 1 2 3 4 5 6 7 8 9 10 11 12 13 14 15 16 17 18 19 20 21 22 23 24 25 26 27 28 29 30 31 32 33 34 35 36 37 38 39 40 41 42 43 44 45 46 47 48 49 50

000
ASUS43 KFSD 271610
RWRSD

WEATHER ROUNDUP FOR SOUTH DAKOTA
NATIONAL WEATHER SERVICE SIOUX FALLS SD
1100 AM CDT TUE SEP 27 2016

NOTE: "FAIR" INDICATES FEW OR NO CLOUDS BELOW 12,000 FEET WITH NO
SIGNIFICANT WEATHER AND/OR OBSTRUCTIONS TO VISIBILITY.


SDZ001>005-009-010-012>017-271700-
NORTHWEST AND NORTH CENTRAL SOUTH DAKOTA

CITY           SKY/WX    TMP DP  RH WIND       PRES   REMARKS
BUFFALO          N/A     65  50  58 W7        29.98S
MOBRIDGE       SUNNY     59  42  53 CALM      29.99F
$$

SDZ012>016-024>037-041>051-057-063-072>074-271700-
SOUTHWEST AND SOUTH CENTRAL SOUTH DAKOTA

CITY           SKY/WX    TMP DP  RH WIND       PRES   REMARKS
RAPID CTY ARPT SUNNY     70  46  42 CALM      30.07F
PIERRE         SUNNY     62  44  51 W5        30.00F
CUSTER         SUNNY     69  33  26 W9        30.19S
ELLSWORTH AFB  SUNNY     71  44  38 CALM      30.06F
PHILIP         SUNNY     66  45  46 SW12      30.04F
PINE RIDGE     SUNNY     66  46  48 W13       30.10F
WINNER         FAIR      72  45  37 NW8       30.04F
$$

SDZ004>011-016>023-039-040-271700-
NORTHEAST SOUTH DAKOTA

CITY           SKY/WX    TMP DP  RH WIND       PRES   REMARKS
ABERDEEN       SUNNY     64  35  34 N9        29.98F
WATERTOWN      SUNNY     60  38  43 NW13      29.96S
BROOKINGS      SUNNY     61  37  41 NW17      29.96F
SISSETON         N/A     60  36  40 NW14G21   29.93S
$$

SDZ017-020-022-023-036>040-048>070-271700-
SOUTHEAST SOUTH DAKOTA

CITY           SKY/WX    TMP DP  RH WIND       PRES   REMARKS
SIOUX FALLS    SUNNY     64  41  42 W10       29.98F
HURON          SUNNY     63  40  42 MISG      29.99F
CHAMBERLAIN    SUNNY     64  46  52 W8        30.02F
MITCHELL       SUNNY     65  41  41 W6        30.01F
YANKTON        SUNNY     66  43  42 W10       30.00F
$$

ABBREVIATIONS USED IN REMARKS
   TC - TEMPERATURE IN CELSIUS
  WCI - WIND CHILL INDEX
   HX - HEAT INDEX
  VSB - VISIBILITY





USA.gov is the U.S. government's official web portal to all federal, state and local government web resources and services.